TimeCST,TemperatureF,Dew PointF,Humidity,Sea Level PressureIn,VisibilityMPH,Wind Direction,Wind SpeedMPH,Gust SpeedMPH,PrecipitationIn,Events,Conditions,WindDirDegrees,DateUTC
12:53 AM,27.0,19.0,72,30.32,10.0,ENE,3.5,-,N/A,,Clear,60,2013-01-27 06:53:00
1:53 AM,28.9,19.9,69,30.31,10.0,East,5.8,-,N/A,,Mostly Cloudy,90,2013-01-27 07:53:00
2:53 AM,32.0,24.1,73,30.31,10.0,ESE,3.5,-,N/A,,Overcast,110,2013-01-27 08:53:00
3:53 AM,33.1,25.0,72,30.28,10.0,East,8.1,-,N/A,,Partly Cloudy,100,2013-01-27 09:53:00
4:53 AM,34.0,25.0,70,30.29,9.0,East,5.8,-,N/A,,Overcast,100,2013-01-27 10:53:00
5:53 AM,34.0,27.0,75,30.29,9.0,East,4.6,-,N/A,,Overcast,100,2013-01-27 11:53:00
6:53 AM,34.0,28.0,79,30.29,8.0,ESE,4.6,-,N/A,,Overcast,120,2013-01-27 12:53:00
7:53 AM,34.0,28.9,82,30.28,5.0,SE,9.2,-,0.00,,Overcast,130,2013-01-27 13:53:00
8:53 AM,36.0,30.0,79,30.27,5.0,ESE,8.1,-,0.00,,Haze,120,2013-01-27 14:53:00
9:28 AM,35.6,30.2,81,30.27,5.0,ESE,5.8,-,0.00,,Haze,120,2013-01-27 15:28:00
9:53 AM,37.0,32.0,82,30.28,4.0,SE,5.8,-,0.00,,Overcast,130,2013-01-27 15:53:00
10:53 AM,37.0,34.0,89,30.27,3.0,SE,5.8,-,0.00,,Overcast,130,2013-01-27 16:53:00
11:17 AM,37.4,33.8,87,30.26,2.5,SE,8.1,-,0.00,Rain,Light Rain,130,2013-01-27 17:17:00
11:53 AM,37.9,35.1,89,30.24,3.0,SE,5.8,-,0.00,Rain,Light Rain,140,2013-01-27 17:53:00
12:03 PM,37.4,35.6,93,30.22,2.5,SE,6.9,-,0.00,Rain,Light Rain,140,2013-01-27 18:03:00
12:29 PM,37.4,35.6,93,30.20,3.0,SE,6.9,-,0.00,Rain,Light Rain,130,2013-01-27 18:29:00
12:34 PM,39.2,35.6,87,30.19,2.5,SE,8.1,-,0.00,Rain,Light Rain,130,2013-01-27 18:34:00
12:42 PM,39.2,37.4,93,30.19,3.0,SE,8.1,-,0.00,Rain,Light Rain,140,2013-01-27 18:42:00
12:53 PM,39.0,37.0,93,30.19,3.0,SE,6.9,-,0.00,,Overcast,140,2013-01-27 18:53:00
1:14 PM,39.2,37.4,93,30.17,3.0,SE,6.9,-,0.00,,Overcast,140,2013-01-27 19:14:00
1:23 PM,41.0,37.4,87,30.17,3.0,SSE,6.9,-,0.00,Rain,Light Rain,160,2013-01-27 19:23:00
1:53 PM,41.0,39.0,93,30.17,3.0,SE,8.1,-,0.00,Rain,Light Rain,140,2013-01-27 19:53:00
2:53 PM,43.0,41.0,93,30.15,4.0,SE,8.1,-,0.00,,Overcast,140,2013-01-27 20:53:00
3:24 PM,44.6,41.0,87,30.13,4.0,SE,8.1,-,N/A,,Overcast,140,2013-01-27 21:24:00
3:53 PM,44.1,42.1,93,30.14,5.0,SE,6.9,-,N/A,,Overcast,140,2013-01-27 21:53:00
4:53 PM,45.0,43.0,93,30.13,5.0,SSE,8.1,-,N/A,,Overcast,150,2013-01-27 22:53:00
5:53 PM,46.0,43.0,89,30.11,8.0,SSE,11.5,-,N/A,,Overcast,150,2013-01-27 23:53:00
6:38 PM,46.4,42.8,87,30.09,10.0,SSE,13.8,-,N/A,,Scattered Clouds,150,2013-01-28 00:38:00
6:53 PM,46.9,43.0,86,30.09,10.0,SSE,16.1,-,N/A,,Clear,150,2013-01-28 00:53:00
7:53 PM,46.9,43.0,86,30.08,10.0,SSE,12.7,-,N/A,,Partly Cloudy,150,2013-01-28 01:53:00
8:53 PM,50.0,44.1,80,30.08,10.0,SSE,13.8,-,N/A,,Clear,160,2013-01-28 02:53:00
9:53 PM,51.8,46.4,82,30.06,10.0,South,13.8,-,N/A,,Mostly Cloudy,170,2013-01-28 03:53:00
10:53 PM,52.0,46.9,83,30.07,10.0,South,12.7,-,N/A,,Scattered Clouds,180,2013-01-28 04:53:00
11:53 PM,54.0,48.0,80,30.06,10.0,South,13.8,-,N/A,,Overcast,180,2013-01-28 05:53:00